^^
Station Historical Data
Daily Summary for December 8, 2017 Units:  English    Metric   Both
« Previous Day
Next Day »
Daily Weekly Monthly Yearly Custom
  High: Low: Average:
Temperature: 40.5 °F 31.8 °F 34 °F
Dew Point: 32.9 °F 29.1 °F 31.5 °F
Humidity: 96% 64% 91%
Wind Speed: 2.9mph -999.9mph -4.9mph
Wind Gust: 5.0mph - -
Wind- -
Pressure: 30.16 in -100.00 in -
Precipitation: 0.01 in    
Historical Graphs
 
 
Tabular Data for December 8, 2017
Time Temperature Dew Point Pressure Wind Wind Speed Wind Gust Humidity Rainfall Rate (Hourly)
00:01 40.3 °F 29.1 °F 30.14 in Calm   5.0 mph 64% 0.00 in
00:06 40.5 °F 30.0 °F 30.14 in Calm     66% 0.00 in
00:11 40.3 °F 29.5 °F 30.14 in Calm   4.0 mph 65% 0.00 in
00:17 40.3 °F 29.5 °F 30.14 in Calm   1.0 mph 65% 0.00 in
00:22 40.3 °F 29.5 °F 30.14 in Calm   1.0 mph 65% 0.00 in
00:27 40.3 °F 29.5 °F 30.14 in Calm   2.0 mph 65% 0.00 in
00:32 40.3 °F 29.5 °F 30.13 in NW 0.9 mph 4.0 mph 65% 0.00 in
00:37 40.3 °F 29.5 °F 30.12 in NW 0.9 mph 1.0 mph 65% 0.00 in
00:42 40.3 °F 29.8 °F 30.12 in North 0.9 mph 1.0 mph 66% 0.00 in
00:48 40.1 °F 29.7 °F 30.12 in Calm     66% 0.00 in
00:53 40.1 °F 30.0 °F 30.11 in Calm     67% 0.00 in
00:58 39.9 °F 29.8 °F 30.12 in Calm     67% 0.00 in
01:03 39.9 °F 30.2 °F 30.12 in Calm   1.0 mph 68% 0.00 in
01:08 39.9 °F 30.2 °F 30.12 in Calm   1.0 mph 68% 0.00 in
01:34 39.6 °F 29.8 °F 30.11 in Calm   4.0 mph 68% 0.00 in
01:49 39.6 °F 29.8 °F 30.11 in Calm   1.0 mph 68% 0.00 in
01:54 39.6 °F 30.2 °F 30.11 in Calm   1.0 mph 69% 0.00 in
02:05 39.6 °F 30.2 °F 30.13 in NW 0.9 mph 2.0 mph 69% 0.00 in
02:10 39.4 °F 30.4 °F 30.13 in Calm     70% 0.00 in
02:20 39.4 °F 30.4 °F 30.14 in North 2.9 mph 3.0 mph 70% 0.00 in
02:26 39.4 °F 30.4 °F 30.15 in NW 2.0 mph 4.0 mph 70% 0.00 in
02:31 39.4 °F 30.4 °F 30.15 in Calm   1.0 mph 70% 0.00 in
02:37 39.2 °F 30.6 °F 30.16 in Calm     71% 0.00 in
02:47 39.2 °F 30.6 °F 30.16 in Calm     71% 0.00 in
02:52 39.0 °F 30.7 °F 30.15 in Calm     72% 0.00 in
03:13 38.3 °F 31.6 °F 30.14 in Calm   2.0 mph 77% 0.00 in
03:18 38.1 °F 31.8 °F 30.14 in Calm     78% 0.00 in
03:24 37.9 °F 32.0 °F 30.13 in Calm   1.0 mph 79% 0.00 in
03:29 37.6 °F 32.0 °F 30.12 in Calm     80% 0.00 in
03:35 37.2 °F 32.2 °F 30.13 in Calm     82% 0.00 in
03:51 36.1 °F 32.0 °F 30.13 in Calm     85% 0.00 in
03:56 35.8 °F 32.4 °F 30.13 in Calm     87% 0.00 in
04:11 35.1 °F 32.2 °F 30.13 in Calm     89% 0.01 in
04:17 34.9 °F 32.0 °F 30.12 in Calm     89% 0.01 in
04:23 34.5 °F 31.8 °F 30.13 in Calm     90% 0.01 in
04:33 34.2 °F 31.8 °F 30.12 in Calm     91% 0.01 in
04:44 33.6 °F 31.3 °F 30.12 in Calm     91% 0.01 in
04:49 33.6 °F 31.5 °F 30.11 in Calm   1.0 mph 92% 0.01 in
04:54 33.4 °F 31.3 °F 30.12 in Calm   1.0 mph 92% 0.01 in
04:59 33.4 °F 31.3 °F 30.12 in Calm   2.0 mph 92% 0.00 in
05:04 33.3 °F 31.1 °F 30.12 in Calm     92% 0.00 in
05:15 33.1 °F 31.1 °F 30.12 in Calm     92% 0.00 in
05:25 32.7 °F 30.7 °F 30.11 in Calm     92% 0.00 in
05:30 32.7 °F 30.9 °F 30.11 in Calm     93% 0.00 in
05:40 32.7 °F 30.9 °F 30.10 in Calm     93% 0.00 in
05:46 32.5 °F 30.7 °F 30.09 in Calm     93% 0.00 in
05:51 32.5 °F 30.7 °F 30.09 in Calm     93% 0.00 in
05:56 32.5 °F 30.7 °F 30.10 in Calm     93% 0.00 in
06:02 32.5 °F 30.7 °F 30.11 in Calm     93% 0.00 in
06:08 32.5 °F 30.7 °F 30.10 in Calm     93% 0.00 in
06:13 32.5 °F 30.7 °F 30.09 in Calm   1.0 mph 93% 0.00 in
06:19 32.5 °F 30.7 °F 30.09 in Calm     93% 0.00 in
06:24 32.4 °F 30.6 °F 30.08 in Calm     93% 0.00 in
06:34 32.4 °F 30.6 °F 30.09 in Calm   1.0 mph 93% 0.00 in
06:39 32.2 °F 30.4 °F 30.09 in Calm     93% 0.00 in
06:44 32.2 °F 30.6 °F 30.10 in Calm     94% 0.00 in
06:49 32.2 °F 30.6 °F 30.10 in Calm     94% 0.00 in
06:54 32.2 °F 30.6 °F 30.10 in Calm     94% 0.00 in
07:05 32.0 °F 30.6 °F 30.11 in Calm     94% 0.00 in
07:15 31.8 °F 30.4 °F 30.12 in Calm     94% 0.00 in
07:20 32.0 °F 30.6 °F 30.11 in Calm     94% 0.00 in
07:25 31.8 °F 30.4 °F 30.11 in Calm     94% 0.00 in
07:30 31.8 °F 30.4 °F 30.11 in Calm     94% 0.00 in
07:36 31.8 °F 30.4 °F 30.11 in Calm     94% 0.00 in
07:41 32.0 °F 30.6 °F 30.12 in Calm     94% 0.00 in
07:52 32.0 °F 30.6 °F 30.12 in Calm     94% 0.00 in
07:57 32.0 °F 30.6 °F 30.12 in Calm     94% 0.00 in
08:02 32.0 °F 30.6 °F 30.12 in Calm     94% 0.00 in
08:07 32.2 °F 30.6 °F 30.12 in Calm     94% 0.00 in
08:12 32.2 °F 30.6 °F 30.12 in Calm     94% 0.00 in
08:18 32.2 °F 30.6 °F 30.12 in Calm     94% 0.00 in
08:23 32.2 °F 30.6 °F 30.11 in Calm     94% 0.00 in
08:33 32.2 °F 30.6 °F 30.12 in Calm     94% 0.00 in
08:39 32.2 °F 30.9 °F 30.12 in Calm     95% 0.00 in
08:55 32.4 °F 31.1 °F 30.12 in Calm     95% 0.00 in
09:00 32.4 °F 31.1 °F 30.13 in Calm     95% 0.00 in
09:05 32.4 °F 31.1 °F 30.11 in Calm     95% 0.00 in
09:22 32.5 °F 31.3 °F -100.00 in North -999.9 mph -999.0 mph 95% 0.00 in
09:27 32.5 °F 31.3 °F 30.12 in Calm     95% 0.00 in
09:37 32.5 °F 31.3 °F 30.13 in Calm     95% 0.00 in
09:47 32.7 °F 31.5 °F 30.13 in Calm     95% 0.00 in
09:52 32.9 °F 31.6 °F 30.14 in Calm     95% 0.00 in
10:03 32.9 °F 31.6 °F 30.13 in Calm     95% 0.00 in
10:14 32.7 °F 31.5 °F 30.14 in Calm     95% 0.00 in
10:19 32.7 °F 31.5 °F 30.13 in Calm     95% 0.00 in
10:24 32.7 °F 31.5 °F 30.13 in Calm     95% 0.00 in
10:30 32.7 °F 31.5 °F 30.12 in Calm     95% 0.00 in
10:35 32.7 °F 31.5 °F 30.12 in Calm     95% 0.00 in
10:40 32.9 °F 31.6 °F 30.11 in Calm     95% 0.00 in
10:51 32.9 °F 31.6 °F 30.11 in Calm     95% 0.00 in
10:57 33.1 °F 31.8 °F 30.12 in Calm     95% 0.00 in
11:02 33.1 °F 31.8 °F 30.12 in Calm     95% 0.00 in
11:07 33.1 °F 31.8 °F 30.12 in Calm     95% 0.00 in
11:17 33.1 °F 31.8 °F 30.11 in Calm     95% 0.00 in
11:22 33.1 °F 31.8 °F 30.11 in Calm     95% 0.00 in
11:27 33.1 °F 31.8 °F 30.11 in Calm     95% 0.00 in
11:32 33.3 °F 32.0 °F 30.11 in Calm     95% 0.00 in
11:34 33.3 °F 32.0 °F 30.11 in Calm     95% 0.00 in
11:44 33.3 °F 32.0 °F 30.12 in Calm     95% 0.00 in
11:49 33.3 °F 32.0 °F 30.13 in Calm     95% 0.00 in
11:54 33.3 °F 32.0 °F 30.13 in Calm     95% 0.00 in
12:04 33.3 °F 32.0 °F 30.13 in Calm     95% 0.00 in
12:15 33.3 °F 32.0 °F 30.11 in Calm     95% 0.00 in
12:20 33.1 °F 31.8 °F 30.11 in Calm     95% 0.00 in
12:25 33.1 °F 31.8 °F 30.11 in Calm     95% 0.00 in
12:30 33.1 °F 31.8 °F 30.11 in Calm     95% 0.00 in
12:36 33.1 °F 31.8 °F 30.11 in Calm     95% 0.00 in
12:41 33.1 °F 31.8 °F 30.09 in Calm     95% 0.00 in
12:46 33.1 °F 31.8 °F 30.09 in Calm     95% 0.00 in
12:55 33.1 °F 31.8 °F 30.06 in Calm     95% 0.00 in
13:00 33.1 °F 31.8 °F 30.07 in Calm     95% 0.00 in
13:05 33.1 °F 31.8 °F 30.06 in Calm     95% 0.00 in
13:16 33.3 °F 32.0 °F 30.05 in Calm     95% 0.00 in
13:21 33.3 °F 32.0 °F 30.05 in Calm     95% 0.00 in
13:27 33.3 °F 32.0 °F 30.06 in Calm     95% 0.00 in
13:32 33.4 °F 32.2 °F 30.06 in Calm     95% 0.00 in
13:37 33.4 °F 32.2 °F 30.05 in Calm     95% 0.00 in
13:42 33.6 °F 32.4 °F 30.04 in Calm     95% 0.00 in
13:47 33.6 °F 32.4 °F 30.03 in Calm     95% 0.00 in
14:14 33.8 °F 32.5 °F 30.01 in Calm     95% 0.00 in
14:20 34.0 °F 32.7 °F 30.01 in Calm     95% 0.00 in
14:30 34.2 °F 32.9 °F 29.99 in Calm   1.0 mph 95% 0.00 in
14:35 34.2 °F 32.9 °F 29.99 in Calm     95% 0.00 in
14:41 34.2 °F 32.9 °F 30.00 in Calm     95% 0.00 in
14:46 34.2 °F 32.9 °F 29.99 in Calm     95% 0.00 in
14:51 34.2 °F 32.9 °F 29.99 in Calm     95% 0.00 in
15:01 34.2 °F 32.5 °F 29.99 in Calm     94% 0.00 in
15:07 34.0 °F 32.4 °F 29.98 in Calm     94% 0.00 in
15:12 34.0 °F 32.4 °F 30.00 in Calm   2.0 mph 94% 0.00 in
15:17 34.0 °F 32.4 °F 30.01 in NW 2.0 mph 4.0 mph 94% 0.00 in
15:43 33.6 °F 32.0 °F 30.02 in Calm   1.0 mph 94% 0.00 in
15:48 33.4 °F 31.8 °F 30.01 in Calm     94% 0.00 in
16:04 33.4 °F 31.8 °F 30.01 in Calm     94% 0.00 in
16:09 33.4 °F 31.8 °F 30.01 in Calm     94% 0.00 in
16:15 33.4 °F 31.8 °F 30.01 in Calm     94% 0.00 in
16:20 33.4 °F 32.2 °F 30.01 in Calm     95% 0.00 in
16:26 33.4 °F 32.2 °F 30.01 in Calm     95% 0.00 in
16:31 33.4 °F 32.2 °F 30.01 in Calm     95% 0.00 in
16:36 33.4 °F 32.2 °F 30.01 in Calm     95% 0.00 in
16:41 33.4 °F 32.2 °F 30.01 in Calm     95% 0.00 in
16:47 33.4 °F 32.2 °F 30.02 in Calm     95% 0.00 in
16:52 33.4 °F 32.2 °F 30.01 in Calm     95% 0.00 in
17:03 33.4 °F 32.2 °F 30.02 in Calm     95% 0.00 in
17:08 33.4 °F 32.2 °F 30.01 in Calm     95% 0.00 in
17:14 33.4 °F 32.2 °F 30.00 in Calm     95% 0.00 in
17:29 33.3 °F 32.0 °F 30.01 in Calm     95% 0.00 in
17:34 33.3 °F 32.0 °F 30.01 in Calm     95% 0.00 in
17:40 33.3 °F 32.0 °F 30.01 in Calm     95% 0.00 in
17:45 33.3 °F 32.0 °F 30.00 in Calm     95% 0.00 in
17:50 33.3 °F 32.0 °F 30.00 in Calm     95% 0.00 in
17:55 33.3 °F 32.0 °F 30.00 in Calm     95% 0.00 in
18:01 33.3 °F 32.0 °F 29.99 in Calm     95% 0.00 in
18:06 33.3 °F 32.0 °F 30.00 in Calm     95% 0.00 in
18:16 33.3 °F 32.0 °F 30.01 in Calm     95% 0.00 in
18:21 33.3 °F 32.0 °F 30.01 in Calm   1.0 mph 95% 0.00 in
18:26 33.3 °F 32.0 °F 30.01 in Calm     95% 0.00 in
18:37 33.3 °F 32.2 °F 30.01 in Calm     96% 0.00 in
18:42 33.3 °F 32.0 °F 30.01 in Calm     95% 0.00 in
18:47 33.1 °F 31.8 °F 30.01 in NW 0.9 mph 1.0 mph 95% 0.00 in
19:02 33.1 °F 32.0 °F 30.03 in Calm     96% 0.00 in
19:07 33.1 °F 32.0 °F 30.04 in Calm     96% 0.00 in
19:13 33.1 °F 32.0 °F 30.04 in Calm     96% 0.00 in
19:19 33.1 °F 32.0 °F 30.04 in Calm     96% 0.00 in
19:29 33.1 °F 32.0 °F 30.04 in Calm     96% 0.00 in
19:39 33.1 °F 32.0 °F 30.04 in ENE 2.0 mph 2.0 mph 96% 0.00 in
19:44 33.1 °F 32.0 °F 30.03 in Calm   1.0 mph 96% 0.00 in
19:50 33.1 °F 32.0 °F 30.02 in Calm     96% 0.00 in
20:00 33.1 °F 32.0 °F 30.05 in Calm     96% 0.00 in
20:06 33.1 °F 32.0 °F 30.06 in Calm     96% 0.00 in
20:12 33.1 °F 32.0 °F 30.04 in Calm     96% 0.00 in
20:17 33.1 °F 32.0 °F 30.03 in Calm     96% 0.00 in
20:22 33.1 °F 32.0 °F 30.03 in Calm     96% 0.00 in
20:27 33.1 °F 32.0 °F 30.02 in Calm     96% 0.00 in
20:37 33.1 °F 32.0 °F 30.01 in Calm     96% 0.00 in
20:43 33.1 °F 32.0 °F 29.99 in Calm     96% 0.00 in
20:48 33.1 °F 32.0 °F 30.00 in Calm     96% 0.00 in
20:53 33.1 °F 32.0 °F 29.99 in Calm     96% 0.00 in
20:58 33.1 °F 32.0 °F 30.00 in Calm     96% 0.00 in
21:03 33.1 °F 32.0 °F 30.00 in Calm     96% 0.00 in
21:09 33.1 °F 32.0 °F 30.01 in Calm     96% 0.00 in
21:14 33.1 °F 32.0 °F 30.01 in Calm     96% 0.00 in
21:19 33.3 °F 32.2 °F 30.01 in Calm     96% 0.00 in
21:29 33.3 °F 32.2 °F 30.00 in Calm     96% 0.00 in
21:34 33.1 °F 32.0 °F 30.00 in Calm     96% 0.00 in
21:45 33.1 °F 32.0 °F 30.00 in Calm     96% 0.00 in
21:50 33.1 °F 32.0 °F 30.00 in Calm     96% 0.00 in
21:55 33.1 °F 32.0 °F 30.00 in Calm     96% 0.00 in
22:05 33.1 °F 32.0 °F 30.03 in Calm     96% 0.00 in
22:16 33.1 °F 32.0 °F 30.04 in Calm     96% 0.00 in
22:22 33.1 °F 32.0 °F 30.05 in Calm     96% 0.00 in
22:29 32.9 °F 31.8 °F 30.05 in Calm     96% 0.00 in
22:32 32.9 °F 31.8 °F 30.06 in Calm     96% 0.00 in
22:37 32.9 °F 31.8 °F 30.06 in Calm     96% 0.00 in
22:42 32.7 °F 31.6 °F 30.06 in Calm     96% 0.00 in
22:47 32.7 °F 31.6 °F 30.06 in Calm     96% 0.00 in
22:52 32.7 °F 31.6 °F 30.05 in Calm     96% 0.00 in
22:57 32.5 °F 31.5 °F 30.05 in Calm   2.0 mph 96% 0.00 in
23:20 32.2 °F 31.1 °F 30.04 in Calm   1.0 mph 96% 0.00 in
23:30 32.2 °F 31.1 °F 30.03 in Calm     96% 0.00 in
23:40 32.2 °F 31.1 °F 30.03 in Calm     96% 0.00 in
23:50 32.2 °F 31.1 °F 30.02 in Calm     96% 0.00 in
23:56 32.2 °F 31.1 °F 30.01 in Calm     96% 0.00 in
Ellijay Weather
Compliments of Weather Underground - 2 mb